Data supplied by UK-AIR on 22/4/2016
All Data GMT hour ending 
Status: R =Ratified P=Provisional,P*=As supplied
,,Bath Roadside,,,,,,,,,,,,,,,,,,,,,,,
Date,time,"Nitric oxide",status,unit,"Nitrogen dioxide",status,unit,"Nitrogen oxides as nitrogen dioxide",status,unit
 
01-01-2015,01:00,20.10481,R,ugm-3,41.98639,R,ugm-3,72.81334,R,ugm-3
01-01-2015,02:00,17.73692,R,ugm-3,30.31838,R,ugm-3,57.51461,R,ugm-3
01-01-2015,03:00,14.49550,R,ugm-3,30.90361,R,ugm-3,53.12973,R,ugm-3
01-01-2015,04:00,10.12496,R,ugm-3,23.59595,R,ugm-3,39.12067,R,ugm-3
01-01-2015,05:00,9.86989,R,ugm-3,20.00093,R,ugm-3,35.13454,R,ugm-3
01-01-2015,06:00,7.57548,R,ugm-3,18.96435,R,ugm-3,30.57992,R,ugm-3
01-01-2015,07:00,5.28107,R,ugm-3,14.85104,R,ugm-3,22.94857,R,ugm-3
01-01-2015,08:00,4.73444,R,ugm-3,13.18382,R,ugm-3,20.44319,R,ugm-3
01-01-2015,09:00,6.62846,R,ugm-3,15.91678,R,ugm-3,26.08028,R,ugm-3
01-01-2015,10:00,12.89303,R,ugm-3,20.26294,R,ugm-3,40.03197,R,ugm-3
01-01-2015,11:00,16.31687,R,ugm-3,20.76449,R,ugm-3,45.78334,R,ugm-3
01-01-2015,12:00,21.81621,R,ugm-3,31.63705,R,ugm-3,65.08811,R,ugm-3
01-01-2015,13:00,25.20357,R,ugm-3,41.02073,R,ugm-3,79.66567,R,ugm-3
01-01-2015,14:00,20.72358,R,ugm-3,35.24881,R,ugm-3,67.02452,R,ugm-3
01-01-2015,15:00,21.59794,R,ugm-3,29.12403,R,ugm-3,62.24040,R,ugm-3
01-01-2015,16:00,20.35968,R,ugm-3,35.17996,R,ugm-3,66.39770,R,ugm-3
01-01-2015,17:00,17.00850,R,ugm-3,29.15654,R,ugm-3,55.23587,R,ugm-3
01-01-2015,18:00,20.14109,R,ugm-3,27.37170,R,ugm-3,58.25427,R,ugm-3
01-01-2015,19:00,14.45901,R,ugm-3,19.74083,R,ugm-3,41.91100,R,ugm-3
01-01-2015,20:00,12.31023,R,ugm-3,17.73987,R,ugm-3,36.61529,R,ugm-3
01-01-2015,21:00,12.05547,R,ugm-3,16.53595,R,ugm-3,35.02074,R,ugm-3
01-01-2015,22:00,11.47267,R,ugm-3,15.55054,R,ugm-3,33.14171,R,ugm-3
01-01-2015,23:00,7.46665,R,ugm-3,13.54958,R,ugm-3,24.99829,R,ugm-3
01-01-2015,24:00,6.99299,R,ugm-3,11.14462,R,ugm-3,21.86705,R,ugm-3
02-01-2015,01:00,8.58808,R,ugm-3,12.01815,R,ugm-3,25.18635,R,ugm-3
02-01-2015,02:00,8.77008,R,ugm-3,9.36838,R,ugm-3,22.81565,R,ugm-3
02-01-2015,03:00,2.62058,R,ugm-3,8.32846,R,ugm-3,12.34662,R,ugm-3
02-01-2015,04:00,2.80206,R,ugm-3,9.01744,R,ugm-3,13.31387,R,ugm-3
02-01-2015,05:00,6.73230,R,ugm-3,12.89121,R,ugm-3,23.21393,R,ugm-3
02-01-2015,06:00,12.88211,R,ugm-3,23.88760,R,ugm-3,43.63990,R,ugm-3
02-01-2015,07:00,19.25052,R,ugm-3,30.05398,R,ugm-3,59.57103,R,ugm-3
02-01-2015,08:00,34.24275,R,ugm-3,50.02335,R,ugm-3,102.52817,R,ugm-3
02-01-2015,09:00,44.46843,R,ugm-3,55.62363,R,ugm-3,123.80760,R,ugm-3
02-01-2015,10:00,66.44773,R,ugm-3,75.29178,R,ugm-3,177.17687,R,ugm-3
02-01-2015,11:00,76.38247,R,ugm-3,75.47777,R,ugm-3,192.59592,R,ugm-3
02-01-2015,12:00,74.41735,R,ugm-3,67.68051,R,ugm-3,181.78552,R,ugm-3
02-01-2015,13:00,60.62564,R,ugm-3,71.47395,R,ugm-3,164.43197,R,ugm-3
02-01-2015,14:00,63.42770,R,ugm-3,61.82921,R,ugm-3,159.08366,R,ugm-3
02-01-2015,15:00,80.34920,R,ugm-3,74.51626,R,ugm-3,197.71664,R,ugm-3
02-01-2015,16:00,90.10152,R,ugm-3,86.98719,R,ugm-3,225.14093,R,ugm-3
02-01-2015,17:00,86.86291,R,ugm-3,78.63913,R,ugm-3,211.82707,R,ugm-3
02-01-2015,18:00,138.82761,R,ugm-3,88.68741,R,ugm-3,301.55344,R,ugm-3
02-01-2015,19:00,164.48270,R,ugm-3,99.41940,R,ugm-3,351.62269,R,ugm-3
02-01-2015,20:00,128.42045,R,ugm-3,81.37401,R,ugm-3,278.28262,R,ugm-3
02-01-2015,21:00,156.76815,R,ugm-3,74.54973,R,ugm-3,314.92420,R,ugm-3
02-01-2015,22:00,106.98653,R,ugm-3,63.14549,R,ugm-3,227.18922,R,ugm-3
02-01-2015,23:00,87.88164,R,ugm-3,59.49596,R,ugm-3,194.24593,R,ugm-3
02-01-2015,24:00,43.99570,R,ugm-3,53.78811,R,ugm-3,121.24724,R,ugm-3
03-01-2015,01:00,35.34100,R,ugm-3,48.59408,R,ugm-3,102.78285,R,ugm-3
03-01-2015,02:00,26.54223,R,ugm-3,41.56293,R,ugm-3,82.26045,R,ugm-3
03-01-2015,03:00,8.28987,R,ugm-3,27.02649,R,ugm-3,39.73745,R,ugm-3
03-01-2015,04:00,11.38037,R,ugm-3,24.61866,R,ugm-3,42.06831,R,ugm-3
03-01-2015,05:00,9.56243,R,ugm-3,21.66432,R,ugm-3,36.32650,R,ugm-3
03-01-2015,06:00,3.99916,R,ugm-3,10.46759,R,ugm-3,16.59954,R,ugm-3
03-01-2015,07:00,13.81603,R,ugm-3,25.60312,R,ugm-3,46.78740,R,ugm-3
03-01-2015,08:00,16.17966,R,ugm-3,26.92370,R,ugm-3,51.73217,R,ugm-3
03-01-2015,09:00,31.63246,R,ugm-3,35.34969,R,ugm-3,83.85213,R,ugm-3
03-01-2015,10:00,19.63375,R,ugm-3,35.10107,R,ugm-3,65.20573,R,ugm-3
03-01-2015,11:00,57.08331,R,ugm-3,54.25523,R,ugm-3,141.78175,R,ugm-3
03-01-2015,12:00,95.84160,R,ugm-3,74.18779,R,ugm-3,221.14285,R,ugm-3
03-01-2015,13:00,40.68568,R,ugm-3,46.25429,R,ugm-3,108.63813,R,ugm-3
03-01-2015,14:00,14.76148,R,ugm-3,29.55338,R,ugm-3,52.18734,R,ugm-3
03-01-2015,15:00,7.99862,R,ugm-3,22.24285,R,ugm-3,34.50724,R,ugm-3
03-01-2015,16:00,13.81634,R,ugm-3,32.14004,R,ugm-3,53.32480,R,ugm-3
03-01-2015,17:00,21.30607,R,ugm-3,45.21437,R,ugm-3,77.88322,R,ugm-3
03-01-2015,18:00,35.84959,R,ugm-3,51.11156,R,ugm-3,106.08016,R,ugm-3
03-01-2015,19:00,17.05184,R,ugm-3,36.84336,R,ugm-3,62.98914,R,ugm-3
03-01-2015,20:00,8.03511,R,ugm-3,33.44341,R,ugm-3,45.76373,R,ugm-3
03-01-2015,21:00,10.36195,R,ugm-3,36.98153,R,ugm-3,52.86963,R,ugm-3
03-01-2015,22:00,5.48999,R,ugm-3,25.00976,R,ugm-3,33.42763,R,ugm-3
03-01-2015,23:00,4.54485,R,ugm-3,17.70353,R,ugm-3,24.67221,R,ugm-3
03-01-2015,24:00,2.90870,R,ugm-3,12.08318,R,ugm-3,16.54313,R,ugm-3
04-01-2015,01:00,5.47814,R,ugm-3,19.31944,R,ugm-3,27.71914,R,ugm-3
04-01-2015,02:00,6.29013,R,ugm-3,16.82474,R,ugm-3,26.46948,R,ugm-3
04-01-2015,03:00,18.57916,R,ugm-3,32.68749,R,ugm-3,61.17514,R,ugm-3
04-01-2015,04:00,11.99871,R,ugm-3,19.48885,R,ugm-3,37.88663,R,ugm-3
04-01-2015,05:00,12.36199,R,ugm-3,19.32964,R,ugm-3,38.28443,R,ugm-3
04-01-2015,06:00,16.50677,R,ugm-3,19.50654,R,ugm-3,44.81657,R,ugm-3
04-01-2015,07:00,15.74311,R,ugm-3,25.56200,R,ugm-3,49.70109,R,ugm-3
04-01-2015,08:00,23.30580,R,ugm-3,33.50604,R,ugm-3,69.24111,R,ugm-3
04-01-2015,09:00,42.35831,R,ugm-3,48.02909,R,ugm-3,112.97759,R,ugm-3
04-01-2015,10:00,45.48435,R,ugm-3,50.50673,R,ugm-3,120.24844,R,ugm-3
04-01-2015,11:00,89.18819,R,ugm-3,73.75222,R,ugm-3,210.50553,R,ugm-3
04-01-2015,12:00,74.60850,R,ugm-3,71.00108,R,ugm-3,185.39918,R,ugm-3
04-01-2015,13:00,76.42613,R,ugm-3,68.10030,R,ugm-3,185.28539,R,ugm-3
04-01-2015,14:00,62.64627,R,ugm-3,62.81702,R,ugm-3,158.87329,R,ugm-3
04-01-2015,15:00,66.42777,R,ugm-3,63.09672,R,ugm-3,164.95121,R,ugm-3
04-01-2015,16:00,40.50389,R,ugm-3,45.36259,R,ugm-3,107.46768,R,ugm-3
04-01-2015,17:00,47.73916,R,ugm-3,48.69608,R,ugm-3,121.89510,R,ugm-3
04-01-2015,18:00,64.50069,R,ugm-3,58.66689,R,ugm-3,157.56657,R,ugm-3
04-01-2015,19:00,35.59545,R,ugm-3,45.61838,R,ugm-3,100.19731,R,ugm-3
04-01-2015,20:00,36.14052,R,ugm-3,45.52133,R,ugm-3,100.93601,R,ugm-3
04-01-2015,21:00,25.08757,R,ugm-3,40.54357,R,ugm-3,79.01063,R,ugm-3
04-01-2015,22:00,26.21450,R,ugm-3,40.57608,R,ugm-3,80.77109,R,ugm-3
04-01-2015,23:00,9.92601,R,ugm-3,32.43648,R,ugm-3,47.65615,R,ugm-3
04-01-2015,24:00,11.41685,R,ugm-3,29.80966,R,ugm-3,47.31525,R,ugm-3
05-01-2015,01:00,11.76994,R,ugm-3,29.66606,R,ugm-3,47.71305,R,ugm-3
05-01-2015,02:00,10.42618,R,ugm-3,25.36453,R,ugm-3,41.35112,R,ugm-3
05-01-2015,03:00,5.99421,R,ugm-3,16.88068,R,ugm-3,26.07168,R,ugm-3
05-01-2015,04:00,10.57149,R,ugm-3,18.72338,R,ugm-3,34.93277,R,ugm-3
05-01-2015,05:00,24.66629,R,ugm-3,30.34038,R,ugm-3,68.16150,R,ugm-3
05-01-2015,06:00,69.09543,R,ugm-3,45.37406,R,ugm-3,151.31891,R,ugm-3
05-01-2015,07:00,104.00611,R,ugm-3,57.96166,R,ugm-3,217.43547,R,ugm-3
05-01-2015,08:00,225.77564,R,ugm-3,78.97286,R,ugm-3,425.15736,R,ugm-3
05-01-2015,09:00,280.73948,R,ugm-3,104.26568,R,ugm-3,534.72687,R,ugm-3
05-01-2015,10:00,241.46917,R,ugm-3,119.20852,R,ugm-3,489.45608,R,ugm-3
05-01-2015,11:00,,,,,,,,,
05-01-2015,12:00,334.06873,R,ugm-3,205.50864,R,ugm-3,717.74021,R,ugm-3
05-01-2015,13:00,224.79495,R,ugm-3,144.15086,R,ugm-3,488.83165,R,ugm-3
05-01-2015,14:00,166.88905,R,ugm-3,110.58888,R,ugm-3,366.48186,R,ugm-3
05-01-2015,15:00,137.97258,R,ugm-3,105.05506,R,ugm-3,316.61007,R,ugm-3
05-01-2015,16:00,163.03833,R,ugm-3,114.27761,R,ugm-3,364.26623,R,ugm-3
05-01-2015,17:00,165.14502,R,ugm-3,101.61830,R,ugm-3,354.83712,R,ugm-3
05-01-2015,18:00,159.62384,R,ugm-3,114.74187,R,ugm-3,359.49502,R,ugm-3
05-01-2015,19:00,123.15061,R,ugm-3,98.47271,R,ugm-3,287.30101,R,ugm-3
05-01-2015,20:00,71.05681,R,ugm-3,75.19759,R,ugm-3,184.14984,R,ugm-3
05-01-2015,21:00,56.30749,R,ugm-3,64.64107,R,ugm-3,150.97801,R,ugm-3
05-01-2015,22:00,34.22061,R,ugm-3,52.55502,R,ugm-3,105.02589,R,ugm-3
05-01-2015,23:00,31.42323,R,ugm-3,50.25476,R,ugm-3,98.43638,R,ugm-3
05-01-2015,24:00,22.05071,R,ugm-3,37.81538,R,ugm-3,71.62599,R,ugm-3
06-01-2015,01:00,25.76381,R,ugm-3,36.15518,R,ugm-3,75.65914,R,ugm-3
06-01-2015,02:00,21.34837,R,ugm-3,35.04848,R,ugm-3,67.78219,R,ugm-3
06-01-2015,03:00,6.40489,R,ugm-3,16.87638,R,ugm-3,26.69707,R,ugm-3
06-01-2015,04:00,8.33352,R,ugm-3,16.81566,R,ugm-3,29.59355,R,ugm-3
06-01-2015,05:00,13.97350,R,ugm-3,21.74369,R,ugm-3,43.16943,R,ugm-3
06-01-2015,06:00,49.45389,R,ugm-3,39.93252,R,ugm-3,115.76076,R,ugm-3
06-01-2015,07:00,83.07860,R,ugm-3,67.61309,R,ugm-3,194.99850,R,ugm-3
06-01-2015,08:00,175.10845,R,ugm-3,95.14592,R,ugm-3,363.64179,R,ugm-3
06-01-2015,09:00,188.86398,R,ugm-3,111.94054,R,ugm-3,401.52794,R,ugm-3
06-01-2015,10:00,124.89028,R,ugm-3,98.53152,R,ugm-3,290.02728,R,ugm-3
06-01-2015,11:00,106.54998,R,ugm-3,84.96090,R,ugm-3,248.33526,R,ugm-3
06-01-2015,12:00,60.58947,R,ugm-3,67.44718,R,ugm-3,160.34974,R,ugm-3
06-01-2015,13:00,54.83973,R,ugm-3,66.72091,R,ugm-3,150.80732,R,ugm-3
06-01-2015,14:00,49.56303,R,ugm-3,56.52203,R,ugm-3,132.51760,R,ugm-3
06-01-2015,15:00,60.33502,R,ugm-3,65.62218,R,ugm-3,158.13458,R,ugm-3
06-01-2015,16:00,120.77824,R,ugm-3,85.69434,R,ugm-3,270.88507,R,ugm-3
06-01-2015,17:00,107.42340,R,ugm-3,94.52723,R,ugm-3,259.24081,R,ugm-3
06-01-2015,18:00,100.54579,R,ugm-3,86.61234,R,ugm-3,240.78040,R,ugm-3
06-01-2015,19:00,161.53471,R,ugm-3,102.26903,R,ugm-3,349.95212,R,ugm-3
06-01-2015,20:00,174.74455,R,ugm-3,95.19230,R,ugm-3,363.13020,R,ugm-3
06-01-2015,21:00,94.39535,R,ugm-3,80.02522,R,ugm-3,224.76274,R,ugm-3
06-01-2015,22:00,100.94555,R,ugm-3,62.14286,R,ugm-3,216.92388,R,ugm-3
06-01-2015,23:00,93.52224,R,ugm-3,57.73455,R,ugm-3,201.13332,R,ugm-3
06-01-2015,24:00,82.53228,R,ugm-3,48.68412,R,ugm-3,175.23186,R,ugm-3
07-01-2015,01:00,61.52723,R,ugm-3,42.73991,R,ugm-3,137.08035,R,ugm-3
07-01-2015,02:00,54.19456,R,ugm-3,39.99133,R,ugm-3,123.08850,R,ugm-3
07-01-2015,03:00,59.11173,R,ugm-3,32.73578,R,ugm-3,123.37251,R,ugm-3
07-01-2015,04:00,52.55592,R,ugm-3,33.52899,R,ugm-3,114.11362,R,ugm-3
07-01-2015,05:00,55.21423,R,ugm-3,37.34826,R,ugm-3,122.00889,R,ugm-3
07-01-2015,06:00,99.57539,R,ugm-3,61.28989,R,ugm-3,213.97002,R,ugm-3
07-01-2015,07:00,137.23512,R,ugm-3,83.74981,R,ugm-3,294.17406,R,ugm-3
07-01-2015,08:00,287.21733,R,ugm-3,127.95964,R,ugm-3,568.35340,R,ugm-3
07-01-2015,09:00,287.18085,R,ugm-3,148.40713,R,ugm-3,588.74496,R,ugm-3
07-01-2015,10:00,225.30105,R,ugm-3,134.74136,R,ugm-3,480.19815,R,ugm-3
07-01-2015,11:00,113.88878,R,ugm-3,93.70198,R,ugm-3,268.32901,R,ugm-3
07-01-2015,12:00,90.65252,R,ugm-3,79.57291,R,ugm-3,218.57150,R,ugm-3
07-01-2015,13:00,96.40662,R,ugm-3,75.52128,R,ugm-3,223.34271,R,ugm-3
07-01-2015,14:00,87.52024,R,ugm-3,68.86865,R,ugm-3,203.06447,R,ugm-3
07-01-2015,15:00,77.03075,R,ugm-3,69.38885,R,ugm-3,187.50102,R,ugm-3
07-01-2015,16:00,71.56758,R,ugm-3,73.22102,R,ugm-3,182.95644,R,ugm-3
07-01-2015,17:00,74.19034,R,ugm-3,67.21194,R,ugm-3,180.96888,R,ugm-3
07-01-2015,18:00,80.49045,R,ugm-3,76.86385,R,ugm-3,200.28083,R,ugm-3
07-01-2015,19:00,55.90648,R,ugm-3,61.56338,R,ugm-3,147.28545,R,ugm-3
07-01-2015,20:00,39.80820,R,ugm-3,49.15651,R,ugm-3,110.19490,R,ugm-3
07-01-2015,21:00,28.77272,R,ugm-3,39.55050,R,ugm-3,83.66805,R,ugm-3
07-01-2015,22:00,16.13445,R,ugm-3,30.01669,R,ugm-3,54.75583,R,ugm-3
07-01-2015,23:00,12.60147,R,ugm-3,22.59714,R,ugm-3,41.91913,R,ugm-3
07-01-2015,24:00,7.57579,R,ugm-3,15.93256,R,ugm-3,27.54861,R,ugm-3
08-01-2015,01:00,9.09656,R,ugm-3,16.27028,R,ugm-3,30.21814,R,ugm-3
08-01-2015,02:00,8.93846,R,ugm-3,18.67078,R,ugm-3,32.37623,R,ugm-3
08-01-2015,03:00,6.01978,R,ugm-3,13.49030,R,ugm-3,22.72050,R,ugm-3
08-01-2015,04:00,11.74770,R,ugm-3,25.89429,R,ugm-3,43.90718,R,ugm-3
08-01-2015,05:00,13.28000,R,ugm-3,30.13383,R,ugm-3,50.49622,R,ugm-3
08-01-2015,06:00,68.04177,R,ugm-3,67.83542,R,ugm-3,172.16468,R,ugm-3
08-01-2015,07:00,126.08706,R,ugm-3,91.52747,R,ugm-3,284.85827,R,ugm-3
08-01-2015,08:00,230.86775,R,ugm-3,119.21856,R,ugm-3,473.21083,R,ugm-3
08-01-2015,09:00,170.81586,R,ugm-3,103.82963,R,ugm-3,365.74363,R,ugm-3
08-01-2015,10:00,114.33937,R,ugm-3,91.98886,R,ugm-3,267.30678,R,ugm-3
08-01-2015,11:00,155.12795,R,ugm-3,113.22908,R,ugm-3,351.08862,R,ugm-3
08-01-2015,12:00,151.80795,R,ugm-3,103.38067,R,ugm-3,336.14961,R,ugm-3
08-01-2015,13:00,88.91035,R,ugm-3,83.83444,R,ugm-3,220.16174,R,ugm-3
08-01-2015,14:00,107.37101,R,ugm-3,97.61783,R,ugm-3,262.25108,R,ugm-3
08-01-2015,15:00,67.20265,R,ugm-3,75.14308,R,ugm-3,178.18571,R,ugm-3
08-01-2015,16:00,104.37937,R,ugm-3,93.91236,R,ugm-3,253.95848,R,ugm-3
08-01-2015,17:00,111.45717,R,ugm-3,96.06727,R,ugm-3,266.96588,R,ugm-3
08-01-2015,18:00,133.45673,R,ugm-3,89.82678,R,ugm-3,294.45758,R,ugm-3
08-01-2015,19:00,155.71169,R,ugm-3,106.14279,R,ugm-3,344.89738,R,ugm-3
08-01-2015,20:00,71.50771,R,ugm-3,72.00658,R,ugm-3,181.65021,R,ugm-3
08-01-2015,21:00,50.05540,R,ugm-3,60.02716,R,ugm-3,136.77770,R,ugm-3
08-01-2015,22:00,30.39078,R,ugm-3,48.14623,R,ugm-3,94.74477,R,ugm-3
08-01-2015,23:00,26.37759,R,ugm-3,42.54117,R,ugm-3,82.98624,R,ugm-3
08-01-2015,24:00,17.54858,R,ugm-3,32.84767,R,ugm-3,59.75511,R,ugm-3
09-01-2015,01:00,15.39833,R,ugm-3,27.09885,R,ugm-3,50.70930,R,ugm-3
09-01-2015,02:00,8.95374,R,ugm-3,16.68561,R,ugm-3,30.41449,R,ugm-3
09-01-2015,03:00,7.12645,R,ugm-3,13.68920,R,ugm-3,24.61627,R,ugm-3
09-01-2015,04:00,12.35232,R,ugm-3,24.32222,R,ugm-3,43.26218,R,ugm-3
09-01-2015,05:00,8.69805,R,ugm-3,22.76258,R,ugm-3,36.09939,R,ugm-3
09-01-2015,06:00,20.10055,R,ugm-3,28.98489,R,ugm-3,59.80531,R,ugm-3
09-01-2015,07:00,31.17408,R,ugm-3,44.18258,R,ugm-3,91.98217,R,ugm-3
09-01-2015,08:00,147.53595,R,ugm-3,85.71203,R,ugm-3,311.93066,R,ugm-3
09-01-2015,09:00,146.43926,R,ugm-3,89.44045,R,ugm-3,313.97752,R,ugm-3
09-01-2015,10:00,118.59141,R,ugm-3,88.53680,R,ugm-3,270.37443,R,ugm-3
09-01-2015,11:00,104.11930,R,ugm-3,81.27886,R,ugm-3,240.92623,R,ugm-3
09-01-2015,12:00,82.92269,R,ugm-3,73.41705,R,ugm-3,200.56340,R,ugm-3
09-01-2015,13:00,67.46365,R,ugm-3,64.60329,R,ugm-3,168.04612,R,ugm-3
09-01-2015,14:00,85.44442,R,ugm-3,73.01829,R,ugm-3,204.03124,R,ugm-3
09-01-2015,15:00,102.94965,R,ugm-3,78.75197,R,ugm-3,236.60589,R,ugm-3
09-01-2015,16:00,55.98849,R,ugm-3,47.63416,R,ugm-3,133.48198,R,ugm-3
09-01-2015,17:00,42.90525,R,ugm-3,42.68078,R,ugm-3,108.46792,R,ugm-3
09-01-2015,18:00,34.97429,R,ugm-3,40.91363,R,ugm-3,94.54013,R,ugm-3
09-01-2015,19:00,28.03089,R,ugm-3,35.69920,R,ugm-3,78.67929,R,ugm-3
09-01-2015,20:00,19.51557,R,ugm-3,28.00569,R,ugm-3,57.92915,R,ugm-3
09-01-2015,21:00,12.68130,R,ugm-3,20.57754,R,ugm-3,40.02193,R,ugm-3
09-01-2015,22:00,11.36602,R,ugm-3,18.67126,R,ugm-3,36.09892,R,ugm-3
09-01-2015,23:00,10.67159,R,ugm-3,19.39562,R,ugm-3,35.75849,R,ugm-3
09-01-2015,24:00,7.85706,R,ugm-3,15.29713,R,ugm-3,27.34445,R,ugm-3
10-01-2015,01:00,8.14487,R,ugm-3,14.49548,R,ugm-3,26.98410,R,ugm-3
10-01-2015,02:00,4.13324,R,ugm-3,9.58019,R,ugm-3,15.91774,R,ugm-3
10-01-2015,03:00,2.12166,R,ugm-3,6.52497,R,ugm-3,9.77813,R,ugm-3
10-01-2015,04:00,4.13355,R,ugm-3,7.58976,R,ugm-3,13.92778,R,ugm-3
10-01-2015,05:00,6.73043,R,ugm-3,9.29284,R,ugm-3,19.61269,R,ugm-3
10-01-2015,06:00,7.35190,R,ugm-3,11.29666,R,ugm-3,22.56941,R,ugm-3
10-01-2015,07:00,10.86367,R,ugm-3,16.37196,R,ugm-3,33.02935,R,ugm-3
10-01-2015,08:00,15.28940,R,ugm-3,21.12643,R,ugm-3,44.56986,R,ugm-3
10-01-2015,09:00,20.88542,R,ugm-3,31.13550,R,ugm-3,63.15936,R,ugm-3
10-01-2015,10:00,22.86051,R,ugm-3,36.63442,R,ugm-3,71.68672,R,ugm-3
10-01-2015,11:00,25.85965,R,ugm-3,44.14433,R,ugm-3,83.79523,R,ugm-3
10-01-2015,12:00,23.15332,R,ugm-3,39.93730,R,ugm-3,75.43856,R,ugm-3
10-01-2015,13:00,18.94711,R,ugm-3,32.51537,R,ugm-3,61.56720,R,ugm-3
10-01-2015,14:00,26.92048,R,ugm-3,43.54141,R,ugm-3,84.81890,R,ugm-3
10-01-2015,15:00,22.45826,R,ugm-3,37.19382,R,ugm-3,71.62934,R,ugm-3
10-01-2015,16:00,39.57621,R,ugm-3,51.13929,R,ugm-3,111.82196,R,ugm-3
10-01-2015,17:00,43.96577,R,ugm-3,64.24948,R,ugm-3,131.66272,R,ugm-3
10-01-2015,18:00,71.43505,R,ugm-3,76.13710,R,ugm-3,185.66933,R,ugm-3
10-01-2015,19:00,97.03869,R,ugm-3,92.30633,R,ugm-3,241.09692,R,ugm-3
10-01-2015,20:00,78.16517,R,ugm-3,85.77132,R,ugm-3,205.62292,R,ugm-3
10-01-2015,21:00,33.39490,R,ugm-3,57.83161,R,ugm-3,109.03641,R,ugm-3
10-01-2015,22:00,28.78644,R,ugm-3,48.98008,R,ugm-3,93.11867,R,ugm-3
10-01-2015,23:00,21.61727,R,ugm-3,48.77353,R,ugm-3,81.91955,R,ugm-3
10-01-2015,24:00,16.71569,R,ugm-3,41.50890,R,ugm-3,67.13927,R,ugm-3
11-01-2015,01:00,18.56398,R,ugm-3,36.95014,R,ugm-3,65.41451,R,ugm-3
11-01-2015,02:00,5.09273,R,ugm-3,16.92037,R,ugm-3,24.72910,R,ugm-3
11-01-2015,03:00,3.84730,R,ugm-3,14.56656,R,ugm-3,20.46566,R,ugm-3
11-01-2015,04:00,3.04123,R,ugm-3,10.51540,R,ugm-3,15.17856,R,ugm-3
11-01-2015,05:00,2.71101,R,ugm-3,9.82786,R,ugm-3,13.98468,R,ugm-3
11-01-2015,06:00,2.08860,R,ugm-3,9.19100,R,ugm-3,12.39348,R,ugm-3
11-01-2015,07:00,6.08246,R,ugm-3,15.91487,R,ugm-3,25.24118,R,ugm-3
11-01-2015,08:00,6.88759,R,ugm-3,21.72935,R,ugm-3,32.29017,R,ugm-3
11-01-2015,09:00,10.95504,R,ugm-3,24.92992,R,ugm-3,41.72740,R,ugm-3
11-01-2015,10:00,26.82038,R,ugm-3,43.35398,R,ugm-3,84.47799,R,ugm-3
11-01-2015,11:00,28.28533,R,ugm-3,42.13046,R,ugm-3,85.50070,R,ugm-3
11-01-2015,12:00,50.70898,R,ugm-3,60.50481,R,ugm-3,138.25749,R,ugm-3
11-01-2015,13:00,48.25398,R,ugm-3,63.18804,R,ugm-3,137.17645,R,ugm-3
11-01-2015,14:00,39.24068,R,ugm-3,50.40298,R,ugm-3,110.57119,R,ugm-3
11-01-2015,15:00,38.50821,R,ugm-3,50.10559,R,ugm-3,109.15068,R,ugm-3
11-01-2015,16:00,53.12718,R,ugm-3,64.01568,R,ugm-3,145.47623,R,ugm-3
11-01-2015,17:00,43.01501,R,ugm-3,51.15316,R,ugm-3,117.10859,R,ugm-3
11-01-2015,18:00,33.08557,R,ugm-3,48.12950,R,ugm-3,98.85999,R,ugm-3
11-01-2015,19:00,44.18747,R,ugm-3,50.94804,R,ugm-3,118.70123,R,ugm-3
11-01-2015,20:00,30.22769,R,ugm-3,46.59998,R,ugm-3,92.94846,R,ugm-3
11-01-2015,21:00,27.80918,R,ugm-3,38.25574,R,ugm-3,80.89588,R,ugm-3
11-01-2015,22:00,20.84768,R,ugm-3,30.11279,R,ugm-3,62.07879,R,ugm-3
11-01-2015,23:00,13.74026,R,ugm-3,20.48813,R,ugm-3,41.55623,R,ugm-3
11-01-2015,24:00,7.14516,R,ugm-3,15.42240,R,ugm-3,26.37816,R,ugm-3
12-01-2015,01:00,6.45436,R,ugm-3,10.49325,R,ugm-3,20.38980,R,ugm-3
12-01-2015,02:00,6.35593,R,ugm-3,13.84650,R,ugm-3,23.59212,R,ugm-3
12-01-2015,03:00,4.87726,R,ugm-3,13.44201,R,ugm-3,20.92036,R,ugm-3
12-01-2015,04:00,5.35840,R,ugm-3,11.33969,R,ugm-3,19.55579,R,ugm-3
12-01-2015,05:00,12.19361,R,ugm-3,14.78697,R,ugm-3,33.48357,R,ugm-3
12-01-2015,06:00,20.02758,R,ugm-3,26.99350,R,ugm-3,57.70204,R,ugm-3
12-01-2015,07:00,50.03201,R,ugm-3,51.70731,R,ugm-3,128.42198,R,ugm-3
12-01-2015,08:00,104.38747,R,ugm-3,75.06897,R,ugm-3,235.12753,R,ugm-3
12-01-2015,09:00,124.30436,R,ugm-3,94.04623,R,ugm-3,284.64359,R,ugm-3
12-01-2015,10:00,133.17235,R,ugm-3,94.66062,R,ugm-3,298.85538,R,ugm-3
12-01-2015,11:00,,,,,,,,,
12-01-2015,12:00,,,,,,,,,
12-01-2015,13:00,,,,,,,,,
12-01-2015,14:00,,,,,,,,,
12-01-2015,15:00,121.38474,R,ugm-3,91.87076,R,ugm-3,277.99144,R,ugm-3
12-01-2015,16:00,143.92532,R,ugm-3,88.29200,R,ugm-3,308.97442,R,ugm-3
12-01-2015,17:00,130.69646,R,ugm-3,94.70509,R,ugm-3,295.10353,R,ugm-3
12-01-2015,18:00,139.30595,R,ugm-3,88.89443,R,ugm-3,302.49391,R,ugm-3
12-01-2015,19:00,120.35011,R,ugm-3,86.40866,R,ugm-3,270.94292,R,ugm-3
12-01-2015,20:00,79.63013,R,ugm-3,71.01830,R,ugm-3,193.11612,R,ugm-3
12-01-2015,21:00,30.22645,R,ugm-3,38.35853,R,ugm-3,84.70510,R,ugm-3
12-01-2015,22:00,17.51490,R,ugm-3,30.27727,R,ugm-3,57.13307,R,ugm-3
12-01-2015,23:00,11.60301,R,ugm-3,22.62870,R,ugm-3,40.41973,R,ugm-3
12-01-2015,24:00,8.38778,R,ugm-3,17.21154,R,ugm-3,30.07263,R,ugm-3
13-01-2015,01:00,4.87694,R,ugm-3,25.41840,R,ugm-3,32.89628,R,ugm-3
13-01-2015,02:00,7.02043,R,ugm-3,26.98346,R,ugm-3,37.74797,R,ugm-3
13-01-2015,03:00,9.71771,R,ugm-3,26.54311,R,ugm-3,41.44340,R,ugm-3
13-01-2015,04:00,9.79193,R,ugm-3,20.51682,R,ugm-3,35.53090,R,ugm-3
13-01-2015,05:00,10.05074,R,ugm-3,21.14269,R,ugm-3,36.55361,R,ugm-3
13-01-2015,06:00,28.37857,R,ugm-3,50.62866,R,ugm-3,94.14186,R,ugm-3
13-01-2015,07:00,85.20992,R,ugm-3,78.43736,R,ugm-3,209.09076,R,ugm-3
13-01-2015,08:00,258.03051,R,ugm-3,115.43181,R,ugm-3,511.07307,R,ugm-3
13-01-2015,09:00,280.68179,R,ugm-3,119.75549,R,ugm-3,550.12823,R,ugm-3
13-01-2015,10:00,223.25953,R,ugm-3,110.81742,R,ugm-3,453.14393,R,ugm-3
13-01-2015,11:00,186.52997,R,ugm-3,109.43373,R,ugm-3,395.44237,R,ugm-3
13-01-2015,12:00,135.53723,R,ugm-3,101.09666,R,ugm-3,308.91752,R,ugm-3
13-01-2015,13:00,94.41063,R,ugm-3,73.48255,R,ugm-3,218.24350,R,ugm-3
13-01-2015,14:00,105.82842,R,ugm-3,79.73882,R,ugm-3,242.00679,R,ugm-3
13-01-2015,15:00,79.07570,R,ugm-3,76.47323,R,ugm-3,197.72094,R,ugm-3
13-01-2015,16:00,114.29041,R,ugm-3,94.10791,R,ugm-3,269.35076,R,ugm-3
13-01-2015,17:00,143.74010,R,ugm-3,102.39047,R,ugm-3,322.78888,R,ugm-3
13-01-2015,18:00,107.86027,R,ugm-3,90.66445,R,ugm-3,256.04789,R,ugm-3
13-01-2015,19:00,119.86990,R,ugm-3,89.53225,R,ugm-3,273.33020,R,ugm-3
13-01-2015,20:00,87.94401,R,ugm-3,78.28149,R,ugm-3,213.12709,R,ugm-3
13-01-2015,21:00,41.31120,R,ugm-3,51.60594,R,ugm-3,114.94890,R,ugm-3
13-01-2015,22:00,34.10586,R,ugm-3,39.97125,R,ugm-3,92.26617,R,ugm-3
13-01-2015,23:00,18.58664,R,ugm-3,31.64757,R,ugm-3,60.14669,R,ugm-3
13-01-2015,24:00,12.67413,R,ugm-3,29.22969,R,ugm-3,48.66308,R,ugm-3
14-01-2015,01:00,12.13041,R,ugm-3,23.24134,R,ugm-3,41.84104,R,ugm-3
14-01-2015,02:00,6.61973,R,ugm-3,17.08054,R,ugm-3,27.23065,R,ugm-3
14-01-2015,03:00,7.50750,R,ugm-3,17.31147,R,ugm-3,28.82281,R,ugm-3
14-01-2015,04:00,6.87855,R,ugm-3,14.35283,R,ugm-3,24.89979,R,ugm-3
14-01-2015,05:00,12.13030,R,ugm-3,21.25170,R,ugm-3,39.85124,R,ugm-3
14-01-2015,06:00,36.46482,R,ugm-3,43.11923,R,ugm-3,99.03116,R,ugm-3
14-01-2015,07:00,65.31081,R,ugm-3,72.11081,R,ugm-3,172.25266,R,ugm-3
14-01-2015,08:00,194.49087,R,ugm-3,118.09114,R,ugm-3,416.30631,R,ugm-3
14-01-2015,09:00,233.87717,R,ugm-3,116.76530,R,ugm-3,475.37196,R,ugm-3
14-01-2015,10:00,174.07631,R,ugm-3,103.17412,R,ugm-3,370.08740,R,ugm-3
14-01-2015,11:00,213.31481,R,ugm-3,111.91042,R,ugm-3,438.98856,R,ugm-3
14-01-2015,12:00,150.29653,R,ugm-3,98.81840,R,ugm-3,329.26987,R,ugm-3
14-01-2015,13:00,115.57014,R,ugm-3,86.00656,R,ugm-3,263.21164,R,ugm-3
14-01-2015,14:00,129.43856,R,ugm-3,100.89776,R,ugm-3,299.36745,R,ugm-3
14-01-2015,15:00,184.61630,R,ugm-3,111.85543,R,ugm-3,394.92982,R,ugm-3
14-01-2015,16:00,162.20513,R,ugm-3,100.91019,R,ugm-3,349.62126,R,ugm-3
14-01-2015,17:00,159.17232,R,ugm-3,98.11412,R,ugm-3,342.17494,R,ugm-3
14-01-2015,18:00,110.17058,R,ugm-3,86.04242,R,ugm-3,254.96828,R,ugm-3
14-01-2015,19:00,60.94682,R,ugm-3,57.99561,R,ugm-3,151.44609,R,ugm-3
14-01-2015,20:00,32.10051,R,ugm-3,40.43121,R,ugm-3,89.65131,R,ugm-3
14-01-2015,21:00,17.52987,R,ugm-3,26.78695,R,ugm-3,53.66571,R,ugm-3
14-01-2015,22:00,12.50044,R,ugm-3,19.09201,R,ugm-3,38.25908,R,ugm-3
14-01-2015,23:00,10.72491,R,ugm-3,18.46041,R,ugm-3,34.90504,R,ugm-3
14-01-2015,24:00,6.98987,R,ugm-3,12.19267,R,ugm-3,22.91032,R,ugm-3
15-01-2015,01:00,5.32514,R,ugm-3,9.81431,R,ugm-3,17.97941,R,ugm-3
15-01-2015,02:00,4.17939,R,ugm-3,8.21419,R,ugm-3,14.62250,R,ugm-3
15-01-2015,03:00,3.80894,R,ugm-3,11.96843,R,ugm-3,17.80872,R,ugm-3
15-01-2015,04:00,3.06961,R,ugm-3,9.97273,R,ugm-3,14.67939,R,ugm-3
15-01-2015,05:00,8.69088,R,ugm-3,19.56057,R,ugm-3,32.88639,R,ugm-3
15-01-2015,06:00,29.06802,R,ugm-3,32.52493,R,ugm-3,77.09527,R,ugm-3
15-01-2015,07:00,77.18230,R,ugm-3,63.72546,R,ugm-3,182.07000,R,ugm-3
15-01-2015,08:00,175.81442,R,ugm-3,101.33238,R,ugm-3,370.91073,R,ugm-3
15-01-2015,09:00,227.25681,R,ugm-3,114.91256,R,ugm-3,463.36815,R,ugm-3
15-01-2015,10:00,191.31025,R,ugm-3,112.39332,R,ugm-3,405.73162,R,ugm-3
15-01-2015,11:00,187.27898,R,ugm-3,98.37613,R,ugm-3,385.53323,R,ugm-3
15-01-2015,12:00,138.16654,R,ugm-3,91.97691,R,ugm-3,303.82931,R,ugm-3